カタログに戻る

COSMOS 1196

運用中ナビゲーションLEO
NORAD 11879·PAYLOAD·🇷🇺 Russia

打ち上げ Jul 9, 1980 から Plesetsk Cosmodrome

Loading…

次のパス (今後24時間)

TLE

最新Source: Space-Track

元期: Sep 14, 2026, 12:15 UTC

1 11879U 80058E   26257.51054877 -.00000022  00000-0 -42884-4 0  9992
2 11879  74.0148 265.6150 0004033  91.3032 344.1239 12.48411523583569

AllMySatでCOSMOS 1196をリアルタイム追跡

Download on the App Store